[Iaude] MPEC S136: 2022 AJ5 [a=2.33,e=0.49,i=0.9,H=20.79]

mpec at marsden.cfa.harvard.edu mpec at marsden.cfa.harvard.edu
Wed Sep 20 22:58:09 EDT 2023


M.P.E.C. 2023-S136                           Issued 2023 September 21, 02:56 UT

     The Minor Planet Electronic Circulars contain information on unusual
         minor planets, routine data on comets and natural satellites,
         and occasional editorial announcements.  They are published
    on behalf of Division F of the International Astronomical Union by the
          Minor Planet Center, Smithsonian Astrophysical Observatory,
                          Cambridge, MA 02138, U.S.A.
			  
             Prepared using the Tamkin Foundation Computer Network

                              MPC at CFA.HARVARD.EDU
            URL https://www.minorplanetcenter.net/    ISSN 1523-6714

                                    2022 AJ5                                    


                           Revision to MPEC 2022-A146                           

Additional Observations:
     K22A05J 5C2015 04 18.32953 13 39 11.08 -11 16 21.4          22.5   ES136W84
     K22A05J 5C2015 04 18.33278 13 39 10.83 -11 16 19.7                 ES136W84
     K22A05J 5C2015 04 18.33600 13 39 10.58 -11 16 18.2                 ES136W84
     K22A05J 5C2015 04 18.33924 13 39 10.35 -11 16 16.8                 ES136W84
     K22A05J 5C2015 04 18.34250 13 39 10.10 -11 16 15.2                 ES136W84
     K22A05J 5C2015 04 19.31646 13 37 59.57 -11 08 45.7          22.7   ES136W84
     K22A05J 5C2015 04 19.31969 13 37 59.33 -11 08 44.3                 ES136W84
     K22A05J 5C2015 04 19.32294 13 37 59.08 -11 08 42.7                 ES136W84
     K22A05J 5C2015 04 19.32617 13 37 58.85 -11 08 41.3                 ES136W84
     K22A05J 5C2015 04 19.32942 13 37 58.61 -11 08 39.9                 ES136W84
     K22A05J 5C2015 04 22.31449 13 34 29.25 -10 46 11.6          22.7   ES136W84
     K22A05J 5C2015 04 22.31774 13 34 29.02 -10 46 10.2                 ES136W84
     K22A05J 5C2015 04 22.32096 13 34 28.79 -10 46 08.7                 ES136W84
     K22A05J 5C2015 04 22.32422 13 34 28.57 -10 46 07.3                 ES136W84
     K22A05J 5C2015 04 22.32743 13 34 28.34 -10 46 05.8                 ES136W84

Observer details:
W84 Cerro Tololo-DECam.  Observers L. Allen, D. Trilling, D. James, D.
    Herrera, C. Fuentes, J. Rajagopal, T. Axelrod.  Measurer F. Valdes.  4.0-m
    CTIO reflector + DECam.

First and last observations above in comparison with prediction:
Residuals in seconds of arc, reference and Delta-T
150418 W84 35.7+ 12.9+    150422 W84 34.9+ 12.7+    MPO704375   +0.00 days

Orbital elements:
2022 AJ5                                                 Earth MOID = 0.2065 AU
Epoch 2023 Sept. 13.0 TT = JDT 2460200.5                Veres                   
M 175.59387              (2000.0)            P               Q                  
n   0.27753210     Peri.  230.32202     -0.25900989     -0.96578045             
a   2.3277012      Node   234.69439     +0.89115665     -0.23356362             
e   0.4885487      Incl.    0.94719     +0.37249658     -0.11276591             
P   3.55           H   20.79          G   0.15           U   0                  
Residuals in seconds of arc
150418 W84  0.2+  0.0     220111 H21  0.3+  0.1+    220209 G96  0.1+  0.0
150418 W84  0.1+  0.2+    220111 H21  0.2+  0.2+    220211 F52  0.0   0.1+
150418 W84  0.0   0.2+    220111 H21  0.1+  0.2+    220211 F52  0.0   0.0
150418 W84  0.2+  0.1+    220114 I52  0.1+  0.1-    220211 F52  0.1+  0.0
150418 W84  0.1+  0.1+    220114 I52  0.0   0.1-    220211 F52  0.1+  0.0
150419 W84  0.1+  0.2+    220114 I52  0.0   0.0     220212 807  0.2-  0.1+
150419 W84  0.1+  0.1+    220114 I52  0.1+  0.2-    220212 807  0.4-  0.0
150419 W84  0.0   0.2+    220115 I52  0.2+  0.9+    220212 807  0.0   0.4+
150419 W84  0.1+  0.0     220115 I52  0.7+  0.6+    220220 807 (0.4-  0.7-)
150419 W84  0.1+  0.1-    220115 I52  0.5-  0.4-    220220 807  0.1+  0.2-
150422 W84  0.0   0.2+    220115 I52  0.4-  0.6+    220220 807  0.7-  0.2+
150422 W84  0.1+  0.1+    220125 I52  0.6+  0.3-    220223 F52  0.2+  0.0
150422 W84  0.0   0.2+    220125 I52  0.0   0.0     220223 F52  0.0   0.1+
150422 W84  0.1+  0.1+    220125 I52  1.0-  0.4+    220223 F52  0.0   0.0
150422 W84  0.0   0.2+    220125 I52  0.3+  0.4+    220223 F52  0.1+  0.2-
220108 G96  0.0   0.3-    220128 G96  0.2-  0.4+    220224 807  0.5-  0.3-
220108 G96  0.1+  0.0     220128 G96  0.2-  0.1+    220224 807  0.1-  0.0
220108 G96  0.0   0.1+    220128 G96  0.5-  0.1-    220224 807  0.3-  0.2+
220108 G96  0.4-  0.2-    220128 G96  0.1-  0.0     220224 F52  0.0   0.1-
220108 I52  0.1+  0.5-    220128 F52  0.0   0.1-    220224 F52  0.0   0.0
220108 I52  0.3+  0.1-    220128 F52  0.0   0.0     220224 F52  0.0   0.0
220108 I52  0.7-  0.1-    220128 F52  0.1+  0.0     220308 I52  0.2+  0.1-
220108 I52  0.2-  0.3-    220131 I52  0.1+  0.2+    220308 I52  0.3+  0.2-
220109 V06  0.1-  0.2+    220131 I52  0.5+  0.3-    220308 I52  0.3-  0.1+
220109 V06  0.5-  0.2+    220131 I52  0.0   0.3-    220323 G96  0.2-  0.2-
220109 V06  0.6-  0.6+    220131 I52  0.1-  0.2-    220323 G96  0.3-  0.2+
220110 033  0.3+  0.0     220204 I52  0.1-  0.3-    220323 G96  0.2-  0.4-
220110 033  0.1+  0.0     220204 I52  0.4+  0.2-    220323 G96  0.3-  0.7-
220110 033  0.2+  0.3+    220204 I52  0.6+  0.1+    220325 F52  0.1-  0.2+
220110 033  0.1-  0.2+    220204 I52  0.3+  0.2+    220325 F52  0.0   0.0
220110 H21  0.1-  0.0     220208 807  0.1-  0.1+    220325 F52  0.0   0.0
220110 H21  0.0   0.1-    220208 807  0.3-  0.1-    220325 F52  0.1-  0.0
220111 L01  0.6-  0.6-    220208 807  0.1-  0.1-    220402 F52  0.1+  0.1-
220111 L01  0.2-  0.3-    220209 G96  0.1+  0.3-    220402 F52  0.1+  0.0
220111 L01  0.4+  0.2-    220209 G96  0.3-  0.0     220402 F52  0.1-  0.0
220111 L01  0.2+  0.2-    220209 G96  0.1+  0.1+

Ephemeris:
2022 AJ5                 a,e,i = 2.33, 0.49, 1                   q = 1.1905
Date    TT    R. A. (2000) Decl.     Delta      r    Elong.  Phase     V
2023 08 22    17 41 51.0 -22 33 04   2.8712  3.4562   117.5    15.1    26.6
...
2023 09 06    17 42 49.4 -22 35 38   3.0895  3.4617   103.2    16.5    26.8
...
2023 09 14    17 45 13.2 -22 37 41   3.2111  3.4636    96.0    16.8    26.9
...
2023 09 20    17 47 47.9 -22 39 21   3.3030  3.4644    90.7    16.9    27.0
2023 09 21    17 48 17.3 -22 39 37   3.3183  3.4645    89.9    16.9    27.0
2023 09 22    17 48 47.8 -22 39 53   3.3336  3.4646    89.0    16.8    27.0
...
2023 09 28    17 52 11.1 -22 41 26   3.4249  3.4649    83.9    16.7    27.1
...
2023 10 06    17 57 33.1 -22 43 02   3.5447  3.4646    77.3    16.4    27.1
...
2023 10 21    18 09 54.2 -22 43 29   3.7581  3.4620    65.3    15.1    27.2

A. U. Tomatic                (C) Copyright 2023 MPC           M.P.E.C. 2023-S136





More information about the Iaude mailing list